www.pogodaiklimat.ru

Погода и климат >> Архив погоды >> Кувейт >> Нувасиб


ПОГОДА в Нувасибе

  • Прогноз погоды в Нувасибе
  • Монитор погоды в Нувасибе

АРХИВ ПОГОДЫ в Нувасибе

Время (UTC), дата Ветер
(напр.,м/с)
 
Видим.   Явления Облачность Т
(С)
Тd
(С)
f
(%)
Тe
(С)
Тes
(С)
Комфортность P
(гПа)
Po
(гПа)
Тmin
(С)
Tmax
(С)
R
(мм)
R24
(мм)
S
(см)
12 11.02 С 5-8
{10}
н/о н/о +15.3 +13.1 87 +14 +14 1014.4 1014.2
15 11.02 С 3-4
{6}
н/о н/о +15.5 +11.6 78 +15 +15 1015.5 1015.3
18 11.02 СЗ 2-3
{6}
н/о н/о +13.2 +11.1 87 +13 +13 1017.2 1017.0
21 11.02 СЗ 3-6
{6}
н/о н/о +12.5 +10.1 85 +11 +11 1017.9 1017.7 +12.4 +16.2
00 12.02 З 3-5
{7}
н/о н/о +11.2 +8.8 85 +9 +9 1017.4 1017.2
03 12.02 СЗ 4-9
{9}
н/о н/о +11.8 +7.1 73 +10 +10 1018.3 1018.1
06 12.02 СЗ 5-10
{12}
н/о н/о +14.1 +9.9 76 +12 +12 1020.4 1020.2
09 12.02 С 5-9
{11}
н/о н/о +18.2 +8.6 53 +18 +18 1020.3 1020.1
12 12.02 С 5-9
{11}
н/о н/о +19.4 +5.5 40 +20 +20 1019.6 1019.4
15 12.02 С 2-3
{8}
н/о н/о +16.5 +9.4 63 +17 +17 1021.4 1021.2
18 12.02 З 2-3
{8}
н/о н/о +12.0 +9.3 84 +11 +11 1023.2 1023.0
21 12.02 З 2-4
{4}
н/о н/о +11.2 +8.1 81 +10 +10 1023.3 1023.1 +10.6 +20.1
00 13.02 З 2-3
{5}
н/о н/о +9.9 +7.6 86 +8 +8 1023.5 1023.3
03 13.02 З 2-3
{4}
н/о н/о +8.8 +7.0 88 +7 +7 1024.8 1024.6
06 13.02 СЗ 3-5
{6}
н/о н/о +14.9 +8.4 65 +14 +14 1025.9 1025.7
09 13.02 СВ 3-5
{6}
н/о н/о +18.4 +8.2 51 +19 +19 1024.7 1024.5
12 13.02 СВ 3-5
{6}
н/о н/о +18.4 +8.2 51 +19 +19 1023.1 1022.9
15 13.02 С 1-2
{7}
н/о н/о +16.0 +9.3 64 +17 +17 1023.4 1023.2
18 13.02 Ю 2-3
{7}
н/о н/о +12.2 +9.9 86 +11 +11 1023.2 1023.0
21 13.02 З 3-3
{4}
н/о н/о +11.7 +10.0 89 +10 +10 1022.0 1021.8 +8.6 +19.7
00 14.02 СЗ 2-3
{4}
н/о н/о +11.4 +9.6 89 +10 +10 1021.1 1020.9
03 14.02 СЗ 2-2
{3}
н/о н/о +11.1 +8.7 85 +10 +10 1021.2 1021.0
06 14.02 Ю 2-3
{3}
н/о н/о +16.9 +7.6 54 +17 +17 1022.8 1022.6
09 14.02 ЮВ 3-6
{7}
н/о н/о +21.0 +8.9 46 +23 +23 комфорт 1020.1 1019.9
12 14.02 ЮВ 4-8
{9}
н/о н/о +19.1 +10.6 58 +20 +20 1018.3 1018.1
15 14.02 СВ 3-7
{9}
н/о н/о +16.5 +12.3 76 +16 +16 1018.0 1017.8
18 14.02 ЮВ 4-8
{9}
н/о н/о +16.0 +13.2 83 +15 +15 1016.9 1016.7
21 14.02 З 3-5
{11}
н/о н/о +16.5 +13.3 81 +16 +16 1016.0 1015.8 +10.4 +21.1
00 15.02 ЮВ 3-7
{11}
н/о н/о +16.0 +13.5 85 +16 +16 1015.8 1015.6
03 15.02 ЮВ 3-8
{8}
н/о н/о +16.9 +14.7 87 +17 +17 1014.9 1014.7
06 15.02 ЮВ 5-12
{12}
н/о н/о +17.9 +13.5 75 +17 +17 1016.5 1016.3
09 15.02 Ю 12-23
{23}
н/о н/о +19.7 +14.1 70 +20 +20 1014.2 1014.0
12 15.02 Ю 6-11
{23}
н/о н/о +17.5 +14.0 80 +17 +17 1012.8 1012.6
15 15.02 ЮВ 5-8
{11}
н/о н/о +17.6 +15.3 86 +17 +17 1013.8 1013.6
18 15.02 ЮВ 4-7
{11}
н/о н/о +16.0
21 15.02 В 5-7
{8}
н/о н/о +17.0 +15.5 +20.4
00 16.02 В 3-5
{8}
н/о н/о +17.6 +17.6 100 +18 +18 1013.7 1013.5
03 16.02 СВ 4-6
{6}
н/о н/о +17.5 +17.5 100 +17 +17 1015.2 1015.0
06 16.02 С 7-10
{14}
н/о н/о +15.9 +14.8 93 +14 +14 1017.6 1017.4
09 16.02 С 7-12
{12}
н/о н/о +16.4 +11.9 75 +15 +15 1017.9 1017.7
12 16.02 С 8-12
{14}
н/о н/о +18.3 +7.6 50 +18 +18 1017.1 1016.9
15 16.02 С 5-6
{13}
н/о н/о +16.9 +8.9 59 +16 +16 1018.5 1018.3
18 16.02 С 4-6
{13}
н/о н/о +15.9 +8.5 61 +15 +15 1020.6 1020.4
21 16.02 СЗ 3-5
{8}
н/о н/о +13.4 +7.3 67 +13 +13 1020.4 1020.2 +13.0 +19.1
00 17.02 СЗ 2-4
{8}
н/о н/о +11.1 +7.3 77 +10 +10 1020.1 1019.9
03 17.02 З 2-3
{4}
н/о н/о +9.5 +6.7 83 +8 +8 1021.0 1020.8
06 17.02 СЗ 2-3
{4}
н/о н/о +16.1 +6.0 51 +17 +17 1022.5 1022.3
09 17.02 С 3-6
{6}
н/о н/о +20.3 +2.5 31 +21 +21 комфорт 1020.8 1020.6
12 17.02 СВ 4-7
{8}
н/о н/о +18.9 +2.5 34 +19 +19 1019.1 1018.9
15 17.02 Ю 1-3
{7}
н/о н/о +15.1 +10.1 72 +16 +16 1018.8 1018.6
18 17.02 ЮЗ 3-5
{7}
н/о н/о +13.1 +9.7 80 +12 +12 1019.7 1019.5
21 17.02 З 3-4
{5}
н/о н/о +12.4 +8.2 76 +11 +11 1019.1 1018.9 +8.9 +20.9
00 18.02 СЗ 2-3
{5}
н/о н/о +11.6 +7.4 75 +11 +11 1018.3 1018.1
03 18.02 З 2-4
{4}
н/о н/о +10.3 +7.4 82 +9 +9 1018.2 1018.0
06 18.02 СЗ 2-4
{4}
н/о н/о +16.6 +9.0 61 +17 +17 1019.6 1019.4
09 18.02 СВ 3-5
{5}
н/о н/о +19.8 +4.7 37 +21 +21 комфорт 1017.7 1017.5

 

Местоположение метеостанции Нувасиб (Кувейт): широта 28.50 долгота 48.75 высота над уровнем моря 2 м.

В архиве по умолчанию представлена погода в Нувасибе за последнюю неделю. Архивные данные за месяц целиком и за предыдущие месяцы, начиная с января 2011 года, Вы можете получить, выбрав интересующий диапазон дат из раскрывающегося списка и нажав кнопку "Ввод!".


*Определитесь, кто Вы:
робот инопланетянин человек

Внимание! Время в таблицах - всемирное. Для получения местного времени необходимо прибавить поправку, которая равна 3 ч.

Смотрите также архив погоды в соседних городах и на ближайших метеорологических станциях:

Погода в Умм-Аль-Марадим (Кувейт) (22 км)
Погода в Порту Juluiah (Кувейт) (62 км)
Погода в Аль-Вафре (Кувейт) (68 км)
Погода в Эль-Кувейте (Кувейт) (110 км)
Погода в Аль-Шуаиба (Кувейт) (114 км)
Погода в Кувейт Сити (Кувейт) (115 км)
Погода Остров Файлака (Кувейт) (117 км)
Погода на Экспериментальной ферме (Кувейт) (118 км)
Погода в Сулайбии (Кувейт) (132 км)
Погода в Минагише (Кувейт) (135 км)

Пояснения к столбцам:

Ветер - указаны скорость ветра в м/с - средняя за 10 мин, порывы в срок и между сроками (в фигурных скобках) и направление, откуда дует ветер: С - северный, СВ - северо-восточный, В - восточный, ЮВ - юго-восточный, Ю - южный, ЮЗ - юго-западный, З - западный, СЗ - северо-западный.
Видимость - горизонтальная дальность видимости в метрах или километрах. При видимости от 1 до 10 км при отсутствии осадков обычно наблюдается дымка, при ухудшении видимости до 1 км и менее - туман. В сухую погоду видимость может ухудшаться дымом, пылью или мглою.
Явления - указаны атмосферные явления, наблюдавшиеся в срок или в последний час перед сроком; фигурными скобками обозначены явления, наблюдавшиеся между сроками (за 1-3 часа до срока); квадратными скобками обозначены град или гололедные отложения с указанием их диаметра в мм.
Облачность - указаны через наклонную черту общая и нижняя облачность в баллах и высота нижней границы облаков в метрах; квадратными скобками обозначены формы облаков: Ci - перистые, Cs - перисто-слоистые, Cc - перисто-кучевые, Ac - высококучевые, As - высокослоистые, Sc - слоисто-кучевые, Ns - слоисто-дождевые, Cu - кучевые, Cb - кучево-дождевые. Подробнее классификацию облаков см. в Атласе облаков (PDF).
T - Температура воздуха - температура, измеренная на высоте 2 м над землей.
Td - Температура точки росы - температура, при понижении до которой содержащийся в воздухе водяной пар достигнет насыщения.
f - Относительная влажность воздуха - влажноcть воздуха, измеренная на высоте 2 м над землей.
Te - Эффективная температура - температура, которую ощущает одетый по сезону человек в тени. Характеристика душности погоды. При расчете учитывается влияние влажности воздуха и скорости ветра на теплоощущения человека.
Tes - Эффективная температура на солнце - температура, которую ощущает человек, с поправкой на солнечный нагрев. Характеристика знойности погоды. Зависит от высоты солнца над горизонтом, облачности и скорости ветра. Ночью, в пасмурную погоду, а также при ветре 12 м/с и более поправка равна нулю.
P - Атмосферное давление - приведенное к уровню моря атмосферное давление.
Po - Атмосферное давление - измеренное на уровне метеостанции атмосферное давление.
Tmin - Минимальная температура - минимум температуры воздуха на высоте 2 м над землей.
Tmax - Максимальная температура - максимум температуры воздуха на высоте 2 м над землей.
R - Количество осадков - Количество выпавших осадков за период времени, мм. При наведении курсора мыши на число - период времени, за который выпало указанное количество осадков.
R24 - Количество осадков - Количество выпавших осадков за 24 часа, мм.
S - Снежный покров - Высота снежного покрова, см. При наведении курсора мыши на число - состояние снежного покрова и степень покрытия местности в баллах.